Regional Weather Roundup
Issued by NWS

Home | Current Version | Previous Version | Graphics & Text | Print | Product List | Glossary On
Versions: 1 2 3 4 5 6 7 8 9 10 11 12 13 14 15 16 17 18 19 20 21 22 23 24 25 26 27 28 29 30 31 32 33 34 35 36 37 38 39 40 41 42 43 44 45 46 47 48 49 50
000
ASUS43 KFSD 180302
RWRSD

WEATHER ROUNDUP FOR SOUTH DAKOTA
NATIONAL WEATHER SERVICE SIOUX FALLS SD
900 PM CST TUE JAN 17 2017

NOTE: "FAIR" INDICATES FEW OR NO CLOUDS BELOW 12,000 FEET WITH NO
SIGNIFICANT WEATHER AND/OR OBSTRUCTIONS TO VISIBILITY.


SDZ001>005-009-010-012>017-180400-
NORTHWEST AND NORTH CENTRAL SOUTH DAKOTA

CITY           SKY/WX    TMP DP  RH WIND       PRES   REMARKS
BUFFALO          N/A     32  19  58 W9        29.77S WCI  24
FAITH            N/A     25  14  63 SW12      29.84F WCI  14
MOBRIDGE       CLOUDY    17  10  74 S9        29.81F WCI   6
$$

SDZ012>016-024>037-041>051-057-063-072>074-180400-
SOUTHWEST AND SOUTH CENTRAL SOUTH DAKOTA

CITY           SKY/WX    TMP DP  RH WIND       PRES   REMARKS
RAPID CTY ARPT CLOUDY    31  11  43 CALM      29.89S
PIERRE         CLOUDY    21  15  78 SW5       29.88F WCI  15
CUSTER         CLOUDY    34  11  38 W3        29.92S
ELLSWORTH AFB  CLOUDY    30  12  47 SW6       29.88S WCI  24
PHILIP         CLOUDY    26  19  74 W13       29.89F WCI  15
PINE RIDGE     CLOUDY    19  14  81 CALM      29.94S
SPEARFISH      FAIR      41  19  42 W10       29.88S
WINNER         FAIR      33  18  53 SW8       29.90F WCI  26
$$

SDZ004>011-016>023-039-040-180400-
NORTHEAST SOUTH DAKOTA

CITY           SKY/WX    TMP DP  RH WIND       PRES   REMARKS
ABERDEEN       CLOUDY    18  13  80 S10       29.88F WCI   6
WATERTOWN      CLOUDY    16  14  92 S10       29.90F WCI   4
BROOKINGS      CLOUDY    22  20  92 S12       29.94F WCI  10
SISSETON         N/A     34  22  61 SW28      29.85F WCI  21
$$

SDZ017-020-022-023-036>040-048>070-180400-
SOUTHEAST SOUTH DAKOTA

CITY           SKY/WX    TMP DP  RH WIND       PRES   REMARKS
SIOUX FALLS    CLOUDY    28  26  92 SW6       29.98S WCI  22
HURON          CLOUDY    25  23  92 S12       29.92F WCI  14
CHAMBERLAIN    CLOUDY    22  19  89 CALM      29.90F
MITCHELL       CLOUDY    29  28  96 S10       29.94F WCI  20
YANKTON        CLOUDY    30  27  86 SE6       29.98F WCI  24
$$

ABBREVIATIONS USED IN REMARKS
   TC - TEMPERATURE IN CELSIUS
  WCI - WIND CHILL INDEX
   HX - HEAT INDEX
  VSB - VISIBILITY




USA.gov is the U.S. government's official web portal to all federal, state and local government web resources and services.